Location: *
(41.7492°S, 135.4150°W)
Time: 03:55:30
(UTC+00:00)

TIGRISAT - Pass Details

Date: 07 July 2022
Orbit: 603 x 686 km, 97.7° (Epoch: 08 August)

Event Time Altitude Azimuth Distance (km) Brightness Sun altitude
Rises 15:13:04 0° 165° (SSE) 3,089 ? -13.7°
Reaches altitude 10° 15:15:22 10° 162° (SSE) 2,159 ? -13.2°
Maximum altitude 15:20:05 65° 80° (E) 752 ? -12.4°
Drops below altitude 10° 15:24:38 10° 357° (N) 2,091 ? -11.6°
Sets 15:26:50 0° 354° (N) 2,982 ? -11.2°
